| time (UTC) | temp F | wind direction | speed MPH | gust MPH | rain 1hr in | rain 24hr in | rain mn in | humidity % | barometer mb |
| 20260508023503 | 48 | 76 | 1.0 | 3.0 | 0.00 | 0.04 | 0.04 | 42 | 1032.4 |
| 20260508023003 | 48 | 293 | 1.0 | 3.0 | 0.00 | 0.04 | 0.04 | 41 | 1032.5 |
| 20260508022503 | 49 | 304 | 2.0 | 8.0 | 0.00 | 0.04 | 0.04 | 40 | 1032.4 |
| 20260508022003 | 49 | 318 | 3.0 | 9.0 | 0.00 | 0.04 | 0.04 | 40 | 1032.3 |
| 20260508021503 | 49 | 317 | 3.0 | 9.0 | 0.00 | 0.04 | 0.04 | 40 | 1032.3 |
| 20260508021003 | 49 | 321 | 3.0 | 9.0 | 0.00 | 0.04 | 0.04 | 40 | 1032.3 |
| 20260508020503 | 49 | 335 | 3.0 | 9.0 | 0.00 | 0.04 | 0.04 | 40 | 1032.3 |
| 20260508020004 | 48 | 335 | 2.0 | 5.0 | 0.00 | 0.04 | 0.04 | 40 | 1032.3 |
| 20260508015503 | 48 | 331 | 1.0 | 4.0 | 0.00 | 0.04 | 0.04 | 43 | 1032.2 |
| 20260508015217 | 48 | 330 | 2.0 | 5.0 | 0.00 | 0.04 | 0.04 | 40 | 1032.1 |
| 20260508014720 | 48 | 303 | 2.0 | 7.0 | 0.00 | 0.04 | 0.04 | 42 | 1032.2 |
| 20260508014003 | 49 | 305 | 2.0 | 5.0 | 0.00 | 0.04 | 0.04 | 39 | 1032.2 |
| 20260508013503 | 50 | 298 | 2.0 | 7.0 | 0.00 | 0.04 | 0.04 | 40 | 1032.1 |
| 20260508013003 | 50 | 287 | 3.0 | 9.0 | 0.00 | 0.04 | 0.04 | 37 | 1032.0 |
| 20260508012503 | 51 | 295 | 4.0 | 9.0 | 0.00 | 0.04 | 0.04 | 35 | 1032.1 |
| 20260508012220 | 51 | 296 | 4.0 | 9.0 | 0.00 | 0.04 | 0.04 | 36 | 1032.1 |
| 20260508011718 | 51 | 306 | 4.0 | 12.0 | 0.00 | 0.04 | 0.04 | 35 | 1032.0 |
| 20260508011003 | 52 | 308 | 4.0 | 9.0 | 0.00 | 0.04 | 0.04 | 35 | 1032.0 |
| 20260508010503 | 52 | 309 | 5.0 | 13.0 | 0.00 | 0.04 | 0.04 | 34 | 1031.9 |
| 20260508010217 | 52 | 310 | 5.0 | 13.0 | 0.00 | 0.04 | 0.04 | 34 | 1031.9 |
| 20260508005503 | 53 | 316 | 4.0 | 8.0 | 0.00 | 0.05 | 0.04 | 34 | 1031.8 |
| 20260508005003 | 53 | 318 | 3.0 | 8.0 | 0.00 | 0.05 | 0.04 | 35 | 1032.0 |
| 20260508004503 | 53 | 301 | 3.0 | 8.0 | 0.00 | 0.05 | 0.04 | 35 | 1031.9 |
| 20260508004219 | 53 | 296 | 4.0 | 15.0 | 0.00 | 0.05 | 0.04 | 38 | 1031.9 |
| 20260508003722 | 53 | 304 | 4.0 | 15.0 | 0.00 | 0.05 | 0.04 | 35 | 1032.0 |
| 20260508003220 | 53 | 313 | 2.0 | 15.0 | 0.00 | 0.05 | 0.04 | 37 | 1032.1 |
| 20260508002503 | 52 | 309 | 2.0 | 6.0 | 0.00 | 0.06 | 0.04 | 39 | 1032.1 |
| 20260508002003 | 52 | 281 | 3.0 | 11.0 | 0.00 | 0.06 | 0.04 | 39 | 1032.0 |
| 20260508001503 | 52 | 290 | 5.0 | 15.0 | 0.00 | 0.06 | 0.04 | 41 | 1032.0 |
| 20260508001217 | 52 | 300 | 5.0 | 15.0 | 0.00 | 0.06 | 0.04 | 38 | 1032.0 |
| 20260508000720 | 53 | 289 | 5.0 | 12.0 | 0.00 | 0.07 | 0.04 | 39 | 1032.1 |
| 20260508000003 | 53 | 261 | 5.0 | 11.0 | 0.00 | 0.07 | 0.04 | 37 | 1032.0 |
| 20260507235503 | 53 | 264 | 5.0 | 11.0 | 0.00 | 0.07 | 0.04 | 39 | 1032.0 |
| 20260507235003 | 52 | 269 | 5.0 | 11.0 | 0.00 | 0.07 | 0.04 | 40 | 1032.1 |
| 20260507234503 | 53 | 283 | 5.0 | 11.0 | 0.00 | 0.07 | 0.04 | 38 | 1032.1 |
| 20260507234003 | 54 | 284 | 6.0 | 15.0 | 0.00 | 0.07 | 0.04 | 38 | 1031.9 |
| 20260507233717 | 54 | 280 | 5.0 | 15.0 | 0.00 | 0.08 | 0.04 | 38 | 1031.9 |
| 20260507233220 | 54 | 272 | 5.0 | 11.0 | 0.00 | 0.08 | 0.04 | 38 | 1032.0 |
| 20260507232503 | 53 | 265 | 4.0 | 12.0 | 0.00 | 0.08 | 0.04 | 40 | 1031.9 |
| 20260507232003 | 53 | 264 | 4.0 | 11.0 | 0.00 | 0.08 | 0.04 | 39 | 1031.9 |
| 20260507231503 | 53 | 289 | 5.0 | 12.0 | 0.00 | 0.09 | 0.04 | 40 | 1032.1 |
| 20260507231003 | 52 | 316 | 6.0 | 16.0 | 0.00 | 0.09 | 0.04 | 42 | 1031.9 |
| 20260507230503 | 51 | 316 | 6.0 | 16.0 | 0.00 | 0.09 | 0.04 | 42 | 1031.9 |
| 20260507230003 | 50 | 318 | 6.0 | 16.0 | 0.00 | 0.09 | 0.04 | 44 | 1031.9 |
| 20260507225503 | 50 | 320 | 7.0 | 17.0 | 0.00 | 0.09 | 0.04 | 42 | 1031.9 |
| 20260507225219 | 50 | 319 | 7.0 | 17.0 | 0.00 | 0.09 | 0.04 | 42 | 1031.9 |
| 20260507224717 | 51 | 304 | 6.0 | 17.0 | 0.00 | 0.10 | 0.04 | 40 | 1032.0 |
| 20260507224220 | 52 | 291 | 5.0 | 13.0 | 0.00 | 0.10 | 0.04 | 41 | 1032.0 |
| 20260507223503 | 52 | 312 | 5.0 | 20.0 | 0.00 | 0.10 | 0.04 | 40 | 1032.0 |
| 20260507223003 | 53 | 282 | 4.0 | 15.0 | 0.00 | 0.10 | 0.04 | 41 | 1032.0 |
| 20260507222503 | 53 | 284 | 6.0 | 15.0 | 0.00 | 0.11 | 0.04 | 40 | 1031.9 |
| 20260507222003 | 53 | 311 | 6.0 | 14.0 | 0.00 | 0.11 | 0.04 | 40 | 1031.9 |
| 20260507221504 | 52 | 314 | 6.0 | 14.0 | 0.00 | 0.11 | 0.04 | 41 | 1032.0 |
| 20260507221004 | 52 | 311 | 6.0 | 14.0 | 0.00 | 0.12 | 0.04 | 42 | 1032.1 |
| 20260507220721 | 51 | 315 | 7.0 | 14.0 | 0.00 | 0.12 | 0.04 | 42 | 1032.1 |
| 20260507220004 | 51 | 315 | 6.0 | 13.0 | 0.00 | 0.13 | 0.04 | 41 | 1032.2 |
| 20260507215717 | 52 | 312 | 6.0 | 13.0 | 0.00 | 0.13 | 0.04 | 40 | 1032.2 |
| 20260507215003 | 52 | 309 | 7.0 | 15.0 | 0.00 | 0.14 | 0.04 | 41 | 1032.3 |
| 20260507214503 | 53 | 303 | 7.0 | 16.0 | 0.00 | 0.15 | 0.04 | 38 | 1032.4 |
| 20260507214003 | 54 | 263 | 5.0 | 16.0 | 0.00 | 0.15 | 0.04 | 39 | 1032.4 |
| 20260507213503 | 53 | 217 | 3.0 | 10.0 | 0.00 | 0.16 | 0.04 | 39 | 1032.4 |
| 20260507213003 | 53 | 165 | 3.0 | 9.0 | 0.00 | 0.17 | 0.04 | 41 | 1032.4 |
| 20260507212503 | 53 | 156 | 4.0 | 10.0 | 0.00 | 0.17 | 0.04 | 40 | 1032.5 |
| 20260507212003 | 52 | 204 | 4.0 | 14.0 | 0.00 | 0.18 | 0.04 | 42 | 1032.6 |
| 20260507211503 | 52 | 259 | 4.0 | 14.0 | 0.00 | 0.19 | 0.04 | 39 | 1032.7 |
| 20260507211003 | 53 | 272 | 3.0 | 12.0 | 0.00 | 0.19 | 0.04 | 38 | 1032.7 |
| 20260507210716 | 53 | 274 | 2.0 | 6.0 | 0.00 | 0.20 | 0.04 | 40 | 1032.7 |
| 20260507210003 | 52 | 286 | 2.0 | 6.0 | 0.00 | 0.21 | 0.04 | 43 | 1032.9 |
| 20260507205503 | 52 | 317 | 3.0 | 10.0 | 0.00 | 0.22 | 0.04 | 41 | 1033.0 |
| 20260507205220 | 52 | 281 | 4.0 | 10.0 | 0.00 | 0.22 | 0.04 | 39 | 1033.0 |
| 20260507204503 | 52 | 256 | 4.0 | 10.0 | 0.00 | 0.23 | 0.04 | 40 | 1033.1 |
| 20260507204003 | 52 | 291 | 4.0 | 11.0 | 0.00 | 0.24 | 0.04 | 41 | 1033.1 |
| 20260507203503 | 51 | 289 | 4.0 | 11.0 | 0.00 | 0.25 | 0.04 | 42 | 1033.2 |
| 20260507203003 | 51 | 265 | 4.0 | 12.0 | 0.00 | 0.25 | 0.04 | 41 | 1033.3 |
| 20260507202503 | 51 | 273 | 4.0 | 12.0 | 0.00 | 0.25 | 0.04 | 41 | 1033.4 |
| 20260507202003 | 52 | 180 | 3.0 | 9.0 | 0.00 | 0.26 | 0.04 | 40 | 1033.3 |
| 20260507201503 | 51 | 145 | 3.0 | 9.0 | 0.00 | 0.26 | 0.04 | 41 | 1033.4 |
| 20260507201003 | 51 | 162 | 2.0 | 9.0 | 0.00 | 0.27 | 0.04 | 45 | 1033.4 |
| 20260507200503 | 50 | 274 | 2.0 | 9.0 | 0.00 | 0.27 | 0.04 | 46 | 1033.4 |
| 20260507200003 | 49 | 271 | 3.0 | 9.0 | 0.00 | 0.27 | 0.04 | 42 | 1033.4 |
| 20260507195503 | 49 | 269 | 3.0 | 9.0 | 0.00 | 0.28 | 0.04 | 41 | 1033.5 |
| 20260507195221 | 50 | 282 | 3.0 | 7.0 | 0.00 | 0.28 | 0.04 | 43 | 1033.5 |
| 20260507194503 | 49 | 264 | 4.0 | 8.0 | 0.00 | 0.29 | 0.04 | 42 | 1033.6 |
| 20260507194003 | 49 | 257 | 3.0 | 8.0 | 0.00 | 0.29 | 0.04 | 41 | 1033.7 |
| 20260507193503 | 49 | 236 | 4.0 | 9.0 | 0.00 | 0.29 | 0.04 | 42 | 1033.6 |
| 20260507193003 | 49 | 242 | 4.0 | 9.0 | 0.00 | 0.30 | 0.04 | 40 | 1033.7 |
| 20260507192503 | 49 | 241 | 3.0 | 9.0 | 0.00 | 0.30 | 0.04 | 42 | 1033.7 |
| 20260507192003 | 48 | 242 | 3.0 | 7.0 | 0.00 | 0.30 | 0.04 | 42 | 1033.7 |
| 20260507191503 | 48 | 262 | 3.0 | 10.0 | 0.00 | 0.30 | 0.04 | 41 | 1033.8 |
| 20260507191003 | 48 | 273 | 5.0 | 10.0 | 0.00 | 0.31 | 0.04 | 42 | 1033.8 |
| 20260507190503 | 48 | 279 | 4.0 | 10.0 | 0.00 | 0.31 | 0.04 | 42 | 1033.9 |
| 20260507190004 | 48 | 276 | 3.0 | 7.0 | 0.00 | 0.31 | 0.04 | 43 | 1034.0 |
| 20260507185503 | 47 | 262 | 4.0 | 10.0 | 0.00 | 0.31 | 0.04 | 45 | 1034.0 |
| 20260507185003 | 47 | 260 | 4.0 | 10.0 | 0.00 | 0.31 | 0.04 | 42 | 1034.0 |
| 20260507184503 | 47 | 273 | 3.0 | 9.0 | 0.00 | 0.31 | 0.04 | 44 | 1034.0 |
| 20260507184218 | 46 | 273 | 4.0 | 9.0 | 0.00 | 0.31 | 0.04 | 44 | 1034.0 |
| 20260507183503 | 46 | 274 | 3.0 | 8.0 | 0.00 | 0.32 | 0.04 | 42 | 1034.1 |
| 20260507183003 | 46 | 265 | 3.0 | 8.0 | 0.00 | 0.32 | 0.04 | 45 | 1034.1 |
| 20260507182717 | 46 | 265 | 4.0 | 10.0 | 0.00 | 0.32 | 0.04 | 47 | 1034.1 |
| 20260507182003 | 45 | 281 | 5.0 | 10.0 | 0.00 | 0.32 | 0.04 | 45 | 1034.2 |
| 20260507181717 | 45 | 264 | 5.0 | 10.0 | 0.00 | 0.32 | 0.04 | 45 | 1034.4 |
| 20260507181003 | 44 | 253 | 4.0 | 9.0 | 0.00 | 0.32 | 0.04 | 49 | 1034.3 |
| 20260507180503 | 44 | 258 | 5.0 | 10.0 | 0.00 | 0.32 | 0.04 | 48 | 1034.4 |
| 20260507180221 | 44 | 261 | 5.0 | 10.0 | 0.00 | 0.32 | 0.04 | 49 | 1034.4 |
| 20260507175503 | 43 | 258 | 5.0 | 11.0 | 0.01 | 0.32 | 0.04 | 51 | 1034.5 |
| 20260507175003 | 43 | 256 | 5.0 | 11.0 | 0.01 | 0.32 | 0.04 | 52 | 1034.5 |
| 20260507174503 | 42 | 266 | 5.0 | 10.0 | 0.01 | 0.32 | 0.04 | 51 | 1034.5 |
| 20260507174003 | 42 | 266 | 5.0 | 10.0 | 0.01 | 0.32 | 0.04 | 53 | 1034.7 |
| 20260507173503 | 42 | 257 | 5.0 | 11.0 | 0.01 | 0.32 | 0.04 | 55 | 1034.7 |
| 20260507173004 | 42 | 260 | 6.0 | 11.0 | 0.01 | 0.32 | 0.04 | 54 | 1034.8 |
| 20260507172504 | 41 | 268 | 6.0 | 10.0 | 0.02 | 0.32 | 0.04 | 54 | 1034.8 |
| 20260507172003 | 42 | 281 | 5.0 | 10.0 | 0.02 | 0.32 | 0.04 | 54 | 1034.9 |
| 20260507171503 | 42 | 281 | 4.0 | 11.0 | 0.02 | 0.32 | 0.04 | 56 | 1034.9 |
| 20260507171003 | 41 | 261 | 5.0 | 11.0 | 0.03 | 0.32 | 0.04 | 57 | 1034.9 |
| 20260507170503 | 41 | 279 | 6.0 | 12.0 | 0.03 | 0.32 | 0.04 | 54 | 1034.8 |
| 20260507170217 | 41 | 297 | 6.0 | 14.0 | 0.03 | 0.32 | 0.04 | 55 | 1035.0 |
| 20260507165503 | 40 | 307 | 6.0 | 14.0 | 0.03 | 0.31 | 0.03 | 56 | 1035.1 |
| 20260507165003 | 40 | 301 | 6.0 | 14.0 | 0.03 | 0.31 | 0.03 | 57 | 1035.1 |
| 20260507164503 | 40 | 305 | 8.0 | 20.0 | 0.03 | 0.31 | 0.03 | 54 | 1035.2 |
| 20260507164003 | 39 | 299 | 8.0 | 20.0 | 0.03 | 0.31 | 0.03 | 52 | 1035.0 |
| 20260507163503 | 39 | 292 | 7.0 | 13.0 | 0.03 | 0.31 | 0.03 | 57 | 1035.1 |
| 20260507163003 | 39 | 302 | 6.0 | 12.0 | 0.03 | 0.31 | 0.03 | 54 | 1035.0 |
| 20260507162503 | 39 | 291 | 5.0 | 11.0 | 0.02 | 0.30 | 0.02 | 58 | 1035.1 |
| 20260507162003 | 39 | 276 | 6.0 | 11.0 | 0.02 | 0.30 | 0.02 | 58 | 1035.0 |
| 20260507161719 | 39 | 273 | 6.0 | 11.0 | 0.02 | 0.30 | 0.02 | 57 | 1035.1 |
| 20260507161217 | 39 | 286 | 5.0 | 10.0 | 0.01 | 0.29 | 0.01 | 57 | 1035.1 |
| 20260507160503 | 39 | 293 | 4.0 | 11.0 | 0.01 | 0.29 | 0.01 | 57 | 1035.0 |
| 20260507160003 | 38 | 287 | 6.0 | 14.0 | 0.01 | 0.29 | 0.01 | 54 | 1035.1 |
| 20260507155503 | 38 | 294 | 6.0 | 14.0 | 0.00 | 0.28 | 0.00 | 52 | 1035.0 |
| 20260507155003 | 38 | 312 | 7.0 | 13.0 | 0.00 | 0.28 | 0.00 | 52 | 1034.9 |
| 20260507154503 | 38 | 318 | 8.0 | 14.0 | 0.00 | 0.28 | 0.00 | 49 | 1035.0 |
| 20260507154003 | 38 | 307 | 6.0 | 14.0 | 0.00 | 0.28 | 0.00 | 50 | 1035.0 |
| 20260507153504 | 38 | 300 | 6.0 | 14.0 | 0.00 | 0.28 | 0.00 | 52 | 1035.0 |
| 20260507153003 | 38 | 305 | 6.0 | 14.0 | 0.00 | 0.28 | 0.00 | 51 | 1035.0 |
| 20260507152503 | 38 | 304 | 6.0 | 13.0 | 0.00 | 0.28 | 0.00 | 52 | 1035.0 |
| 20260507152003 | 37 | 305 | 6.0 | 13.0 | 0.00 | 0.28 | 0.00 | 50 | 1035.0 |
| 20260507151719 | 37 | 309 | 6.0 | 12.0 | 0.00 | 0.28 | 0.00 | 49 | 1035.0 |
| 20260507151003 | 37 | 310 | 7.0 | 14.0 | 0.00 | 0.28 | 0.00 | 51 | 1035.0 |
| 20260507150503 | 36 | 310 | 8.0 | 14.0 | 0.00 | 0.28 | 0.00 | 51 | 1035.0 |
| 20260507150003 | 36 | 311 | 9.0 | 13.0 | 0.00 | 0.28 | 0.00 | 49 | 1035.0 |
| 20260507145503 | 36 | 312 | 8.0 | 13.0 | 0.00 | 0.28 | 0.00 | 49 | 1034.9 |
| 20260507145003 | 36 | 315 | 8.0 | 14.0 | 0.00 | 0.28 | 0.00 | 50 | 1034.9 |
| 20260507144503 | 36 | 320 | 7.0 | 14.0 | 0.00 | 0.28 | 0.00 | 49 | 1034.8 |
| 20260507144003 | 35 | 320 | 6.0 | 11.0 | 0.00 | 0.28 | 0.00 | 51 | 1034.8 |
| 20260507143718 | 35 | 317 | 6.0 | 13.0 | 0.00 | 0.28 | 0.00 | 51 | 1034.9 |
| 20260507143003 | 35 | 313 | 9.0 | 16.0 | 0.00 | 0.28 | 0.00 | 51 | 1034.8 |
| 20260507142503 | 35 | 315 | 10.0 | 16.0 | 0.00 | 0.28 | 0.00 | 50 | 1034.8 |
| 20260507142217 | 35 | 313 | 10.0 | 16.0 | 0.00 | 0.28 | 0.00 | 49 | 1034.8 |
| 20260507141503 | 35 | 316 | 10.0 | 16.0 | 0.00 | 0.28 | 0.00 | 49 | 1034.8 |
| 20260507141003 | 34 | 314 | 9.0 | 16.0 | 0.00 | 0.28 | 0.00 | 49 | 1034.9 |
| 20260507140503 | 34 | 314 | 8.0 | 16.0 | 0.00 | 0.28 | 0.00 | 50 | 1034.9 |
| 20260507140003 | 34 | 315 | 7.0 | 12.0 | 0.00 | 0.28 | 0.00 | 51 | 1035.0 |
| 20260507135503 | 34 | 315 | 8.0 | 15.0 | 0.00 | 0.28 | 0.00 | 52 | 1035.1 |
| 20260507135003 | 34 | 316 | 9.0 | 15.0 | 0.00 | 0.28 | 0.00 | 51 | 1035.1 |
| 20260507134503 | 34 | 314 | 8.0 | 13.0 | 0.00 | 0.28 | 0.00 | 51 | 1035.0 |
| 20260507134003 | 33 | 311 | 7.0 | 13.0 | 0.00 | 0.28 | 0.00 | 53 | 1034.9 |
| 20260507133503 | 33 | 311 | 5.0 | 11.0 | 0.00 | 0.28 | 0.00 | 53 | 1034.8 |
| 20260507133003 | 33 | 314 | 3.0 | 8.0 | 0.00 | 0.28 | 0.00 | 54 | 1034.8 |
| 20260507132503 | 33 | 318 | 2.0 | 8.0 | 0.00 | 0.28 | 0.00 | 55 | 1034.7 |
| 20260507132003 | 34 | 316 | 4.0 | 13.0 | 0.00 | 0.28 | 0.00 | 54 | 1034.6 |
| 20260507131503 | 34 | 315 | 7.0 | 14.0 | 0.00 | 0.28 | 0.00 | 50 | 1034.6 |
| 20260507131003 | 34 | 315 | 8.0 | 14.0 | 0.00 | 0.28 | 0.00 | 50 | 1034.5 |
| 20260507130503 | 33 | 314 | 8.0 | 14.0 | 0.00 | 0.28 | 0.00 | 52 | 1034.5 |
| 20260507130220 | 33 | 314 | 8.0 | 14.0 | 0.00 | 0.28 | 0.00 | 51 | 1034.5 |
| 20260507125503 | 32 | 313 | 7.0 | 14.0 | 0.00 | 0.28 | 0.00 | 56 | 1034.4 |
| 20260507125003 | 32 | 312 | 6.0 | 12.0 | 0.00 | 0.28 | 0.00 | 55 | 1034.6 |
| 20260507124718 | 32 | 312 | 6.0 | 12.0 | 0.00 | 0.28 | 0.00 | 54 | 1034.5 |
| 20260507124003 | 31 | 311 | 5.0 | 10.0 | 0.00 | 0.28 | 0.00 | 54 | 1034.4 |
| 20260507123504 | 31 | 308 | 6.0 | 12.0 | 0.00 | 0.28 | 0.00 | 56 | 1034.4 |
| 20260507123003 | 31 | 303 | 6.0 | 12.0 | 0.00 | 0.28 | 0.00 | 57 | 1034.4 |
| 20260507122503 | 30 | 304 | 6.0 | 12.0 | 0.00 | 0.28 | 0.00 | 58 | 1034.4 |
| 20260507122003 | 30 | 309 | 6.0 | 12.0 | 0.00 | 0.28 | 0.00 | 60 | 1034.3 |
| 20260507121721 | 30 | 310 | 7.0 | 12.0 | 0.00 | 0.28 | 0.00 | 59 | 1034.3 |
| 20260507121003 | 28 | 307 | 5.0 | 10.0 | 0.00 | 0.28 | 0.00 | 62 | 1034.3 |
| 20260507120717 | 28 | 312 | 3.0 | 10.0 | 0.00 | 0.28 | 0.00 | 63 | 1034.4 |
| 20260507120004 | 27 | 334 | 2.0 | 4.0 | 0.00 | 0.28 | 0.00 | 65 | 1034.4 |
| 20260507115503 | 27 | 318 | 2.0 | 4.0 | 0.00 | 0.28 | 0.00 | 65 | 1034.4 |
| 20260507115221 | 28 | 309 | 2.0 | 4.0 | 0.00 | 0.28 | 0.00 | 63 | 1034.4 |
| 20260507114503 | 28 | 304 | 3.0 | 7.0 | 0.00 | 0.28 | 0.00 | 61 | 1034.5 |
| 20260507114003 | 29 | 302 | 4.0 | 10.0 | 0.00 | 0.28 | 0.00 | 59 | 1034.4 |
| 20260507113503 | 29 | 306 | 5.0 | 11.0 | 0.00 | 0.28 | 0.00 | 58 | 1034.4 |
| 20260507113218 | 29 | 304 | 5.0 | 11.0 | 0.00 | 0.28 | 0.00 | 59 | 1034.3 |
| 20260507112503 | 29 | 306 | 5.0 | 11.0 | 0.00 | 0.28 | 0.00 | 58 | 1034.3 |
| 20260507112003 | 29 | 302 | 5.0 | 12.0 | 0.00 | 0.28 | 0.00 | 58 | 1034.2 |
| 20260507111717 | 29 | 300 | 5.0 | 12.0 | 0.00 | 0.28 | 0.00 | 59 | 1034.2 |
| 20260507111004 | 29 | 304 | 4.0 | 14.0 | 0.00 | 0.28 | 0.00 | 61 | 1034.0 |
| 20260507110503 | 28 | 299 | 5.0 | 14.0 | 0.00 | 0.28 | 0.00 | 62 | 1034.0 |
| 20260507110003 | 29 | 305 | 5.0 | 10.0 | 0.00 | 0.28 | 0.00 | 62 | 1034.0 |
| 20260507105503 | 28 | 307 | 5.0 | 10.0 | 0.00 | 0.28 | 0.00 | 63 | 1034.0 |
| 20260507105217 | 28 | 300 | 3.0 | 10.0 | 0.00 | 0.28 | 0.00 | 64 | 1034.2 |
| 20260507104720 | 28 | 298 | 2.0 | 10.0 | 0.00 | 0.28 | 0.00 | 63 | 1034.1 |
| 20260507104003 | 29 | 308 | 4.0 | 12.0 | 0.00 | 0.28 | 0.00 | 63 | 1034.1 |
| 20260507103503 | 30 | 311 | 7.0 | 16.0 | 0.00 | 0.28 | 0.00 | 61 | 1034.1 |
| 20260507103003 | 29 | 315 | 8.0 | 16.0 | 0.00 | 0.28 | 0.00 | 60 | 1034.0 |
| 20260507102503 | 29 | 311 | 5.0 | 14.0 | 0.00 | 0.28 | 0.00 | 62 | 1034.1 |
| 20260507102003 | 28 | 287 | 3.0 | 11.0 | 0.00 | 0.28 | 0.00 | 66 | 1034.2 |
| 20260507101503 | 29 | 285 | 4.0 | 11.0 | 0.00 | 0.28 | 0.00 | 63 | 1034.2 |
| 20260507101003 | 29 | 298 | 5.0 | 12.0 | 0.00 | 0.28 | 0.00 | 64 | 1034.1 |
| 20260507100503 | 29 | 304 | 6.0 | 14.0 | 0.00 | 0.28 | 0.00 | 63 | 1034.0 |
| 20260507100003 | 29 | 299 | 6.0 | 14.0 | 0.00 | 0.28 | 0.00 | 63 | 1033.8 |
| 20260507095503 | 29 | 296 | 6.0 | 13.0 | 0.00 | 0.28 | 0.00 | 63 | 1033.8 |
| 20260507095004 | 29 | 305 | 7.0 | 14.0 | 0.00 | 0.28 | 0.00 | 62 | 1033.9 |
| 20260507094503 | 30 | 313 | 9.0 | 16.0 | 0.00 | 0.28 | 0.00 | 62 | 1033.9 |
| 20260507094003 | 30 | 316 | 10.0 | 16.0 | 0.00 | 0.28 | 0.00 | 63 | 1034.0 |
| 20260507093503 | 29 | 316 | 9.0 | 14.0 | 0.00 | 0.28 | 0.00 | 64 | 1034.0 |
| 20260507093003 | 29 | 312 | 7.0 | 12.0 | 0.00 | 0.28 | 0.00 | 66 | 1033.9 |
| 20260507092503 | 29 | 306 | 6.0 | 14.0 | 0.00 | 0.28 | 0.00 | 67 | 1033.9 |
| 20260507092004 | 29 | 307 | 7.0 | 15.0 | 0.00 | 0.28 | 0.00 | 68 | 1034.0 |
| 20260507091503 | 29 | 312 | 9.0 | 16.0 | 0.00 | 0.28 | 0.00 | 67 | 1034.0 |
| 20260507091003 | 29 | 315 | 9.0 | 18.0 | 0.00 | 0.28 | 0.00 | 67 | 1034.0 |
| 20260507090503 | 29 | 314 | 10.0 | 20.0 | 0.00 | 0.28 | 0.00 | 67 | 1034.0 |
| 20260507090004 | 29 | 313 | 11.0 | 20.0 | 0.00 | 0.28 | 0.00 | 69 | 1034.0 |
| 20260507085503 | 29 | 315 | 12.0 | 22.0 | 0.00 | 0.28 | 0.00 | 68 | 1033.9 |
| 20260507085003 | 29 | 316 | 12.0 | 22.0 | 0.00 | 0.28 | 0.00 | 69 | 1034.0 |
| 20260507084503 | 28 | 314 | 12.0 | 18.0 | 0.00 | 0.28 | 0.00 | 69 | 1034.0 |
| 20260507084003 | 29 | 313 | 13.0 | 19.0 | 0.00 | 0.28 | 0.00 | 70 | 1034.1 |
| 20260507083717 | 29 | 312 | 12.0 | 19.0 | 0.00 | 0.28 | 0.00 | 70 | 1034.0 |
| 20260507083004 | 28 | 314 | 11.0 | 20.0 | 0.00 | 0.28 | 0.00 | 72 | 1034.1 |
| 20260507082503 | 28 | 314 | 10.0 | 20.0 | 0.00 | 0.28 | 0.00 | 71 | 1034.0 |
| 20260507082221 | 28 | 314 | 9.0 | 18.0 | 0.00 | 0.28 | 0.00 | 71 | 1034.0 |
| 20260507081503 | 28 | 314 | 8.0 | 18.0 | 0.00 | 0.28 | 0.00 | 72 | 1034.1 |
| 20260507081217 | 29 | 313 | 8.0 | 18.0 | 0.00 | 0.28 | 0.00 | 71 | 1034.2 |
| 20260507080503 | 29 | 313 | 10.0 | 19.0 | 0.00 | 0.28 | 0.00 | 71 | 1034.2 |
| 20260507080003 | 29 | 315 | 11.0 | 19.0 | 0.00 | 0.28 | 0.00 | 70 | 1034.0 |
| 20260507075503 | 29 | 315 | 12.0 | 21.0 | 0.00 | 0.28 | 0.00 | 71 | 1033.9 |
| 20260507075003 | 29 | 317 | 12.0 | 21.0 | 0.00 | 0.28 | 0.00 | 71 | 1033.7 |
| 20260507074503 | 29 | 318 | 12.0 | 21.0 | 0.00 | 0.28 | 0.00 | 71 | 1033.8 |
| 20260507074004 | 29 | 316 | 12.0 | 19.0 | 0.00 | 0.28 | 0.00 | 71 | 1033.7 |
| 20260507073503 | 29 | 315 | 12.0 | 19.0 | 0.00 | 0.28 | 0.00 | 72 | 1033.8 |
| 20260507073003 | 29 | 316 | 12.0 | 19.0 | 0.00 | 0.28 | 0.00 | 72 | 1033.7 |
| 20260507072503 | 29 | 316 | 12.0 | 22.0 | 0.00 | 0.28 | 0.00 | 72 | 1033.8 |
| 20260507072003 | 29 | 317 | 13.0 | 22.0 | 0.00 | 0.28 | 0.00 | 73 | 1033.9 |
| 20260507071720 | 29 | 315 | 13.0 | 22.0 | 0.00 | 0.28 | 0.00 | 72 | 1034.0 |
| 20260507071003 | 29 | 313 | 12.0 | 18.0 | 0.00 | 0.28 | 0.00 | 75 | 1034.0 |
| 20260507070503 | 29 | 315 | 12.0 | 18.0 | 0.00 | 0.28 | 0.00 | 75 | 1034.0 |
| 20260507070006 | 29 | 317 | 12.0 | 18.0 | 0.00 | 0.28 | 0.00 | 76 | 1034.1 |
| 20260507065503 | 29 | 318 | 12.0 | 20.0 | 0.00 | 0.28 | 0.00 | 77 | 1034.2 |
| 20260507065003 | 29 | 316 | 12.0 | 20.0 | 0.00 | 0.28 | 0.00 | 77 | 1034.1 |
| 20260507064504 | 29 | 315 | 11.0 | 18.0 | 0.00 | 0.28 | 0.00 | 78 | 1034.2 |
| 20260507064220 | 29 | 313 | 11.0 | 18.0 | 0.00 | 0.28 | 0.00 | 78 | 1034.1 |
| 20260507063503 | 29 | 311 | 10.0 | 20.0 | 0.00 | 0.28 | 0.00 | 79 | 1034.2 |
| 20260507063221 | 29 | 309 | 10.0 | 20.0 | 0.00 | 0.28 | 0.00 | 78 | 1034.3 |
| 20260507062504 | 29 | 307 | 11.0 | 19.0 | 0.00 | 0.28 | 0.00 | 81 | 1034.1 |
| 20260507062003 | 29 | 311 | 10.0 | 19.0 | 0.00 | 0.28 | 0.00 | 80 | 1034.2 |
| 20260507061503 | 29 | 309 | 9.0 | 21.0 | 0.00 | 0.28 | 0.00 | 82 | 1033.9 |
| 20260507061218 | 29 | 306 | 9.0 | 21.0 | 0.00 | 0.28 | 0.00 | 81 | 1034.0 |
| 20260507060503 | 29 | 302 | 11.0 | 19.0 | 0.00 | 0.28 | 0.00 | 81 | 1034.0 |
| 20260507060004 | 29 | 304 | 11.0 | 19.0 | 0.00 | 0.28 | 0.00 | 81 | 1033.8 |
| 20260507055503 | 29 | 303 | 10.0 | 21.0 | 0.00 | 0.28 | 0.28 | 82 | 1033.7 |
| 20260507055003 | 29 | 305 | 11.0 | 21.0 | 0.00 | 0.28 | 0.28 | 82 | 1033.5 |
| 20260507054503 | 29 | 301 | 11.0 | 21.0 | 0.00 | 0.28 | 0.28 | 82 | 1033.4 |
| 20260507054004 | 28 | 297 | 11.0 | 20.0 | 0.00 | 0.28 | 0.28 | 82 | 1033.3 |
| 20260507053503 | 29 | 301 | 12.0 | 20.0 | 0.00 | 0.28 | 0.28 | 83 | 1033.3 |
| 20260507053004 | 28 | 308 | 11.0 | 22.0 | 0.00 | 0.28 | 0.28 | 83 | 1033.3 |
| 20260507052504 | 28 | 307 | 10.0 | 22.0 | 0.00 | 0.28 | 0.28 | 83 | 1033.3 |
| 20260507052003 | 28 | 305 | 11.0 | 23.0 | 0.00 | 0.28 | 0.28 | 84 | 1033.2 |
| 20260507051503 | 29 | 303 | 10.0 | 23.0 | 0.00 | 0.28 | 0.28 | 84 | 1033.2 |
| 20260507051004 | 28 | 301 | 9.0 | 19.0 | 0.00 | 0.28 | 0.28 | 85 | 1033.1 |
| 20260507050503 | 28 | 305 | 9.0 | 16.0 | 0.00 | 0.28 | 0.28 | 85 | 1033.2 |
| 20260507050003 | 28 | 305 | 8.0 | 16.0 | 0.00 | 0.28 | 0.28 | 86 | 1033.2 |
| 20260507045503 | 28 | 305 | 8.0 | 19.0 | 0.00 | 0.28 | 0.28 | 87 | 1033.1 |
| 20260507045003 | 29 | 302 | 8.0 | 19.0 | 0.00 | 0.28 | 0.28 | 86 | 1033.3 |
| 20260507044503 | 28 | 300 | 9.0 | 18.0 | 0.00 | 0.28 | 0.28 | 87 | 1033.3 |
| 20260507044221 | 29 | 299 | 9.0 | 18.0 | 0.00 | 0.28 | 0.28 | 87 | 1033.2 |
| 20260507043503 | 28 | 298 | 7.0 | 15.0 | 0.00 | 0.28 | 0.28 | 88 | 1033.0 |
| 20260507043003 | 28 | 293 | 6.0 | 13.0 | 0.00 | 0.28 | 0.28 | 88 | 1033.2 |
| 20260507042503 | 28 | 293 | 6.0 | 18.0 | 0.00 | 0.28 | 0.28 | 88 | 1033.1 |
| 20260507042003 | 28 | 287 | 6.0 | 18.0 | 0.00 | 0.28 | 0.28 | 88 | 1033.1 |
| 20260507041503 | 28 | 296 | 7.0 | 18.0 | 0.00 | 0.28 | 0.28 | 88 | 1033.1 |
| 20260507041003 | 28 | 301 | 6.0 | 18.0 | 0.00 | 0.28 | 0.28 | 89 | 1033.2 |
| 20260507040503 | 28 | 303 | 5.0 | 13.0 | 0.00 | 0.28 | 0.28 | 90 | 1033.1 |
| 20260507040003 | 27 | 313 | 4.0 | 13.0 | 0.00 | 0.28 | 0.28 | 91 | 1033.1 |
| 20260507035503 | 26 | 307 | 2.0 | 5.0 | 0.00 | 0.28 | 0.28 | 91 | 1033.0 |
| 20260507035003 | 26 | 318 | 1.0 | 4.0 | 0.00 | 0.28 | 0.28 | 91 | 1032.9 |
| 20260507034503 | 26 | 292 | 1.0 | 3.0 | 0.00 | 0.28 | 0.28 | 91 | 1033.1 |
| 20260507034217 | 26 | 266 | 1.0 | 3.0 | 0.00 | 0.28 | 0.28 | 91 | 1033.0 |
| 20260507033503 | 27 | 248 | 2.0 | 7.0 | 0.00 | 0.28 | 0.28 | 91 | 1033.1 |
| 20260507033003 | 27 | 261 | 2.0 | 7.0 | 0.00 | 0.28 | 0.28 | 91 | 1033.0 |
| 20260507032503 | 27 | 257 | 2.0 | 4.0 | 0.00 | 0.28 | 0.28 | 91 | 1032.9 |
| 20260507032219 | 27 | 264 | 2.0 | 4.0 | 0.00 | 0.28 | 0.28 | 91 | 1032.9 |
| 20260507031503 | 27 | 292 | 4.0 | 9.0 | 0.00 | 0.28 | 0.28 | 91 | 1032.9 |
| 20260507031003 | 27 | 301 | 3.0 | 9.0 | 0.00 | 0.28 | 0.28 | 91 | 1032.9 |
| 20260507030503 | 27 | 312 | 2.0 | 9.0 | 0.00 | 0.28 | 0.28 | 91 | 1032.9 |
| 20260507030221 | 27 | 316 | 2.0 | 5.0 | 0.00 | 0.28 | 0.28 | 91 | 1032.9 |
| 20260507025719 | 27 | 304 | 2.0 | 4.0 | 0.00 | 0.28 | 0.28 | 91 | 1032.9 |
| 20260507025003 | 27 | 292 | 2.0 | 4.0 | 0.00 | 0.28 | 0.28 | 91 | 1032.7 |
| 20260507024503 | 27 | 301 | 3.0 | 6.0 | 0.00 | 0.28 | 0.28 | 91 | 1032.7 |
| 20260507024004 | 27 | 310 | 3.0 | 6.0 | 0.00 | 0.28 | 0.28 | 91 | 1032.7 |